Temperature
20 20 20 20 18 18 20 22 22 23 23 23 22 21 20 19 19 18 18 19 19 19 19 19 19 19 19 19 19 19 19 19 19 19 19 19 19 19 19 19 19 19 19 19 19 19 19 19 19
21 20 20 20 18 19 21 22 22 23 23 23 22 21 20 19 19 18 18 18 19 19 19 19 19 19 19 19 19 19 19 19 19 19 19 19 19 19 19 19 19 19 19 19 19 19 19 19 19
21 20 20 18 19 20 21 22 22 24 24 23 21 20 20 19 19 19 18 18 19 19 19 19 19 19 19 19 19 18 18 18 19 19 19 19 19 19 19 19 19 19 19 19 19 19 19 19 19
21 21 20 19 21 21 22 22 23 24 23 22 21 19 19 19 19 19 19 19 19 19 18 18 18 18 18 18 18 18 18 18 18 18 18 19 19 19 19 19 19 19 19 19 19 18 18 19 19
21 21 19 20 21 22 22 23 24 23 23 22 20 19 19 19 19 19 19 19 19 19 18 18 18 18 18 18 18 18 18 18 18 18 18 18 18 18 18 18 18 19 19 19 19 19 18 19 19
22 20 20 20 21 22 22 23 23 23 22 21 20 19 19 19 19 19 19 19 19 19 18 18 18 18 18 18 17 17 17 17 17 17 17 17 17 18 18 18 18 18 18 18 18 18 19 19 19
22 19 20 21 21 22 23 24 23 22 22 22 21 19 19 19 19 19 19 19 19 18 18 18 18 18 17 17 17 17 17 17 17 17 17 17 17 17 17 17 18 18 18 18 18 18 18 18 18
23 19 21 20 21 22 23 24 23 23 22 22 21 19 19 19 19 19 19 19 19 18 18 18 18 17 17 17 17 16 16 16 16 16 16 16 16 17 17 17 17 17 17 18 18 18 18 18 18
23 19 20 21 21 22 24 23 23 23 22 22 21 21 21 20 20 19 19 19 19 18 18 18 18 17 17 17 16 16 16 16 16 16 16 16 16 16 16 16 17 17 17 17 17 18 18 18 18
22 19 21 22 22 22 24 24 23 22 21 21 21 21 21 20 20 19 19 19 19 18 18 18 17 17 17 17 16 16 16 16 16 16 16 16 16 16 16 16 16 16 17 17 17 17 17 18 18
21 20 22 23 23 24 24 24 23 22 20 21 21 21 20 20 20 20 20 19 19 18 18 18 17 17 17 16 16 16 16 15 15 15 15 15 15 15 15 16 16 16 16 16 17 17 17 17 18
21 22 23 23 24 24 24 24 23 23 23 23 22 21 21 20 20 20 20 19 19 18 18 17 17 17 16 16 16 16 15 15 15 15 15 15 15 15 15 15 15 16 16 16 16 16 17 17 17
21 22 23 24 24 24 24 24 23 23 23 23 22 21 21 21 20 20 20 19 19 18 18 17 17 16 16 16 15 15 15 15 14 14 14 14 14 14 15 15 15 15 15 16 16 16 16 17 17
22 22 23 23 23 24 23 23 23 22 23 22 22 21 21 21 21 20 20 19 19 18 18 17 17 16 16 15 15 15 15 14 14 14 14 14 14 14 14 14 14 15 15 15 16 16 16 16 16
23 22 22 22 23 23 23 22 22 23 22 22 22 22 21 21 21 20 20 19 19 18 17 17 17 16 16 15 15 14 14 14 14 14 14 14 14 14 14 14 14 14 15 15 15 15 15 16 16
23 21 21 22 22 22 22 21 22 23 22 22 22 22 21 21 20 20 19 19 18 18 17 17 16 16 16 15 15 14 14 14 14 14 13 13 14 14 14 14 14 14 14 14 15 15 15 15 16
21 21 21 21 22 22 21 20 21 23 22 22 22 22 21 21 20 20 19 19 18 18 17 17 16 16 15 15 14 14 14 14 13 13 13 13 13 13 13 14 14 14 14 14 14 15 15 15 16
20 21 21 21 22 21 21 20 21 22 22 22 22 21 21 21 20 20 19 19 18 18 17 17 16 16 15 15 14 14 14 13 13 13 13 13 13 13 13 13 13 14 14 14 14 14 15 15 15
21 21 21 22 23 22 21 21 21 21 21 21 21 21 21 20 20 19 19 18 18 17 17 16 16 15 15 14 14 14 14 13 13 13 13 13 13 13 13 13 13 13 13 14 14 14 14 15 15
22 22 21 22 23 23 21 21 21 21 21 21 21 21 21 20 19 19 19 18 18 17 17 16 16 15 15 14 14 14 13 13 13 13 13 13 13 13 13 13 13 13 13 13 13 13 14 14 14
22 21 22 22 23 23 22 20 21 21 21 21 22 21 21 20 20 19 19 18 18 17 16 16 15 15 15 14 14 14 13 13 13 13 13 13 13 12 12 13 13 13 13 13 13 13 13 14 14
22 23 23 23 22 20 22 19 20 20 20 20 20 21 21 20 20 19 19 18 17 17 16 16 15 15 14 14 14 13 13 13 13 13 13 12 12 12 12 12 13 13 13 13 13 13 13 13 14
22 24 24 23 22 20 20 19 19 20 20 20 19 20 21 20 20 19 19 18 17 17 16 16 15 15 14 14 14 13 13 13 13 12 12 12 12 12 12 12 12 12 13 13 13 13 13 13 13
24 22 21 18 18 19 20 19 20 18 19 19 19 20 20 20 20 19 19 18 17 17 16 16 15 15 14 14 14 13 13 13 13 12 12 12 12 12 12 12 12 12 12 12 13 13 13 13 13
22 20 19 19 18 19 20 19 19 20 20 19 19 20 20 20 20 19 19 18 17 17 16 16 15 15 14 14 14 13 13 13 12 12 12 12 12 12 12 12 12 12 12 12 12 13 13 13 13
22 20 19 19 19 19 19 20 19 21 21 22 22 21 21 20 20 19 19 18 18 17 16 16 15 15 15 14 14 13 13 13 13 12 12 12 12 12 12 12 12 12 12 12 12 12 13 13 13
23 20 19 18 19 19 19 20 21 21 20 20 20 21 21 20 20 20 19 18 18 17 17 16 16 15 15 14 14 13 13 13 13 12 12 12 12 12 12 12 12 12 12 12 12 12 12 12 13
22 20 18 18 19 19 20 20 18 20 19 19 19 20 21 20 20 19 19 18 18 17 17 16 16 15 15 14 14 14 13 13 13 13 12 12 12 12 12 12 12 12 12 12 12 12 12 12 13
23 23 19 16 17 18 19 19 19 19 19 19 19 21 21 21 20 20 19 19 18 17 17 16 16 15 15 14 14 14 13 13 13 13 12 12 12 12 12 12 12 12 12 12 12 12 12 12 12
22 22 19 19 19 17 17 18 20 19 20 20 21 22 21 21 20 20 19 19 18 17 17 16 16 15 15 15 14 14 14 13 13 13 13 12 12 12 12 12 12 12 12 12 12 12 12 12 12
Wind_Speed
8 6 3 2 3 3 1 1 1 2 3 5 9 10 8 6 4 3 2 3 8 7 8 8 7 6 5 4 3 3 3 2 2 2 1 1 2 2 2 3 3 2 2 2 2 2 2 3 3
5 4 2 2 3 2 1 2 2 3 6 8 8 8 7 6 4 4 2 4 8 8 7 7 7 6 5 4 3 2 1 1 1 1 1 1 2 2 2 2 2 2 2 2 2 2 2 2 1
5 3 1 2 1 4 3 3 3 4 6 5 5 6 5 3 3 3 3 6 7 7 7 7 7 6 5 3 2 1 1 1 1 2 2 2 3 3 3 4 4 4 3 3 3 3 3 2 1
3 2 2 2 0 3 4 3 4 6 6 6 6 6 4 3 3 4 6 6 7 5 6 6 6 6 5 3 2 1 0 1 1 2 2 3 4 5 5 5 5 5 5 5 4 4 4 3 3
2 3 3 2 1 2 0 2 6 7 4 5 7 6 3 1 5 6 7 7 7 5 5 5 5 5 4 3 2 0 1 1 2 3 4 4 5 5 6 7 7 7 7 6 6 6 6 5 4
3 3 3 0 1 1 0 3 6 8 6 6 7 6 2 2 5 6 6 6 7 6 5 4 4 4 3 2 1 1 2 3 4 4 5 6 7 7 7 7 8 9 9 8 8 8 8 7 7
3 3 2 2 1 1 1 3 5 6 6 4 7 6 3 3 5 6 6 6 5 4 4 3 3 3 2 2 2 3 4 4 5 6 6 7 8 8 8 8 9 10 11 10 10 9 10 9 9
4 4 2 1 1 2 1 3 4 6 5 4 5 7 6 6 6 6 5 4 4 3 3 3 3 2 2 3 4 4 5 6 6 6 7 8 8 9 9 9 9 10 11 11 11 10 11 11 10
3 4 1 2 3 3 2 4 2 4 6 4 3 6 7 8 7 6 4 2 2 2 1 1 1 1 2 3 4 4 5 6 6 7 7 7 7 7 8 8 8 9 10 11 11 11 11 12 11
3 3 4 4 5 4 3 4 6 5 5 3 3 4 8 8 8 7 6 5 3 2 1 2 1 1 1 1 1 3 4 5 5 5 6 5 6 6 7 8 9 9 10 10 11 11 11 11 8
2 4 3 3 4 3 2 3 5 9 5 7 10 10 9 8 8 7 7 6 5 3 2 2 2 1 2 1 1 2 3 4 5 5 5 5 5 6 6 5 6 7 7 6 8 8 7 7 7
2 4 4 4 2 1 3 3 4 6 8 11 14 13 10 9 9 9 8 6 6 5 4 2 2 2 2 2 2 2 2 3 4 5 5 3 2 3 3 3 4 3 3 3 4 3 5 6 7
4 4 3 2 2 2 2 3 4 5 7 11 12 12 11 10 9 8 8 7 7 5 4 2 2 3 3 2 2 2 2 3 4 5 5 4 1 3 3 3 3 3 3 2 3 3 4 5 5
6 4 3 3 4 3 4 3 4 7 9 12 12 11 11 11 10 8 7 7 6 5 4 3 4 3 3 2 2 2 3 3 4 4 5 5 2 2 2 3 3 3 3 3 3 4 4 4 4
3 1 2 3 4 3 2 3 7 9 10 11 11 10 10 9 9 10 9 8 7 6 5 4 4 4 3 2 2 2 3 3 3 4 6 6 4 3 2 2 3 3 4 4 3 3 3 3 3
1 2 2 5 4 2 4 7 10 8 11 11 9 8 8 8 8 9 9 8 7 6 5 4 4 4 3 2 2 2 3 3 3 4 5 5 5 4 2 2 3 4 3 2 3 2 2 3 3
3 1 4 5 4 5 6 8 8 7 10 10 8 7 8 7 7 8 8 8 7 7 6 5 4 3 2 2 2 2 3 3 3 4 4 5 5 5 3 3 3 3 2 2 3 2 2 3 3
3 3 4 5 5 6 7 10 8 7 9 9 7 7 7 8 8 8 8 8 7 6 6 5 3 2 1 2 2 3 4 4 3 3 4 5 5 5 3 3 3 3 2 2 2 3 2 2 3
5 4 5 7 6 7 9 10 10 8 9 8 7 7 7 7 6 7 7 8 7 5 5 4 3 1 1 1 1 2 3 3 3 3 4 5 5 5 3 3 3 2 2 3 3 2 2 2 1
4 3 4 6 5 6 6 7 5 5 9 10 11 9 8 8 7 6 6 6 6 5 4 3 2 1 1 1 2 2 2 3 3 4 5 6 5 5 3 3 3 3 2 3 2 1 1 2 1
5 6 6 6 3 3 1 6 3 1 3 5 7 8 9 11 11 8 7 6 6 5 4 3 2 2 0 0 1 2 2 3 3 4 4 5 5 5 4 4 4 3 2 3 3 2 2 2 2
5 8 7 5 1 4 1 2 5 2 4 5 6 7 8 9 9 9 8 7 6 5 4 4 3 1 0 0 1 1 2 2 4 4 4 6 5 5 4 4 4 4 3 3 3 2 2 3 2
8 7 4 2 2 3 1 3 6 1 5 6 6 7 8 9 10 10 9 8 7 5 4 4 3 1 1 1 0 1 1 2 3 4 5 5 5 5 5 4 3 3 3 3 3 2 2 2 3
3 3 6 6 5 2 4 5 5 5 7 7 6 7 8 8 9 8 7 7 5 4 4 3 2 1 1 1 1 0 1 3 4 5 5 5 5 5 5 4 3 4 3 3 3 3 3 3 3
4 6 5 6 5 5 2 4 6 5 6 8 9 9 8 9 9 8 8 7 7 6 5 3 3 1 2 1 1 1 1 2 3 4 4 5 4 4 5 5 4 4 4 4 3 3 3 3 3
4 9 6 4 4 5 4 1 4 3 5 7 8 8 8 9 8 9 10 9 7 7 5 4 3 2 2 1 2 2 1 1 2 4 4 4 4 5 5 5 5 5 4 4 3 2 3 2 3
5 4 7 6 1 1 3 2 3 1 3 5 6 6 8 9 9 9 9 8 7 6 6 5 4 3 2 1 1 1 2 2 3 4 4 4 4 4 5 6 6 5 4 3 2 2 2 2 3
6 8 6 4 2 1 3 3 5 8 8 6 6 7 7 7 8 8 8 7 6 6 5 5 4 3 2 1 0 0 2 2 3 3 5 5 5 5 6 6 5 4 4 3 1 2 2 1 2
2 3 5 5 5 5 2 6 6 10 9 9 9 8 8 8 8 8 7 7 6 5 5 5 4 2 2 1 0 1 2 2 3 4 4 5 4 5 6 6 5 4 4 3 2 2 2 1 2
5 6 6 4 2 5 4 7 6 8 9 9 8 7 7 7 8 8 7 6 5 5 5 5 4 3 3 2 1 0 1 2 3 4 5 4 5 5 5 5 5 4 4 3 2 2 2 2 2
Wind_Direction
186 141 92 61 48 48 64 258 145 48 53 59 75 83 85 69 80 124 234 146 138 144 154 144 136 131 128 124 119 124 129 134 137 138 134 132 141 144 148 147 139 133 130 122 106 94 85 93 81
140 129 122 58 80 88 267 226 124 111 129 119 83 77 77 76 87 103 106 129 132 142 148 143 136 132 132 130 126 131 148 162 175 191 204 216 208 199 199 196 186 174 175 171 158 154 141 117 95
146 163 130 79 127 170 195 218 152 111 106 100 82 57 68 84 96 119 160 142 129 137 149 147 142 139 137 135 140 140 177 210 236 239 237 243 244 232 225 221 218 213 205 201 190 189 184 179 199
139 86 61 63 118 224 184 184 136 106 76 66 99 74 49 34 113 149 154 141 132 143 152 149 143 139 134 130 121 98 31 268 264 268 272 267 259 251 244 237 230 227 223 216 207 204 201 203 219
99 93 65 37 313 311 164 119 103 95 88 84 96 95 83 40 129 144 149 143 138 146 154 161 152 145 141 140 141 99 328 308 282 277 274 274 272 263 253 249 243 236 232 224 215 214 215 216 224
66 71 74 76 284 312 354 103 88 93 105 108 103 113 146 177 151 157 150 144 148 154 157 165 167 170 172 186 216 258 279 289 296 292 288 284 280 277 268 260 255 246 240 234 226 221 222 225 229
135 109 134 181 285 319 173 122 106 111 113 123 127 117 159 207 183 163 150 142 141 151 156 170 180 192 201 218 244 266 277 291 301 304 299 293 290 284 279 271 263 254 246 239 234 228 225 226 230
143 104 85 203 200 262 225 120 124 120 122 118 116 138 176 208 185 145 134 130 137 144 158 178 179 193 229 256 261 278 290 297 301 306 309 307 300 292 287 281 270 262 253 245 239 237 232 228 230
90 79 175 214 194 233 196 118 107 83 97 69 95 154 172 168 148 130 118 102 126 127 143 156 153 223 246 249 265 289 299 308 308 311 315 318 314 302 293 289 282 274 265 255 246 241 238 233 233
87 146 213 212 189 194 182 147 143 104 101 96 100 129 149 151 146 144 152 155 150 157 141 128 97 76 55 322 326 328 321 322 318 308 307 313 314 303 299 298 294 285 275 265 256 248 244 237 232
139 189 206 198 197 184 162 161 145 136 164 182 172 170 166 159 157 162 167 165 164 164 144 133 131 87 72 33 14 2 344 328 321 317 311 317 323 313 306 301 302 296 286 276 267 256 243 231 223
176 226 210 197 175 174 161 152 145 171 195 183 173 171 168 169 172 173 170 165 152 148 160 158 133 86 59 50 19 3 342 328 323 324 328 331 323 312 299 286 292 287 281 272 268 256 245 238 231
205 229 225 181 146 214 160 169 169 186 176 165 166 168 175 177 177 177 166 153 149 152 161 146 105 82 67 49 1 5 332 325 322 328 326 328 315 308 302 292 286 284 279 265 256 253 251 244 236
208 196 217 185 191 225 190 209 168 203 171 165 170 179 183 178 170 161 149 142 147 154 153 134 113 100 85 61 10 341 332 331 334 330 326 329 323 309 306 303 296 283 277 268 254 248 250 248 242
186 156 284 236 212 231 171 258 228 198 174 175 184 188 185 181 166 160 158 154 151 146 136 129 122 97 82 49 7 354 332 335 333 328 333 337 331 316 312 304 297 282 281 275 270 262 248 253 248
45 80 269 262 198 192 145 254 257 195 177 187 197 191 178 176 165 159 157 148 141 128 114 101 100 95 80 49 4 338 336 340 332 330 331 334 336 333 322 314 300 289 291 281 269 252 253 255 249
26 285 267 284 205 179 184 243 257 197 182 192 197 186 177 169 157 158 155 144 139 131 126 112 104 103 88 39 6 349 346 337 328 328 326 328 330 327 316 305 299 300 295 286 281 251 233 247 254
229 246 266 265 228 188 210 245 252 205 192 194 187 177 175 170 167 157 148 140 131 127 122 113 108 104 81 23 6 354 346 330 326 318 313 320 321 321 320 304 305 314 312 296 282 266 251 238 241
190 218 261 265 222 200 228 247 249 211 193 187 177 175 168 164 156 146 143 135 126 118 112 112 108 91 63 21 346 328 316 309 316 312 313 317 317 321 316 308 311 316 298 279 277 265 262 248 219
197 233 261 271 241 209 244 272 268 205 191 181 176 175 163 147 144 145 142 135 132 133 129 121 107 94 71 231 243 245 264 281 286 302 316 317 313 313 312 297 295 298 294 297 288 256 251 254 189
224 215 223 243 311 331 34 342 339 332 142 150 161 161 156 158 160 159 150 146 143 147 149 134 135 131 128 271 312 338 344 334 331 322 316 310 312 312 301 292 286 290 275 273 267 237 211 232 239
231 226 220 221 84 292 115 266 286 235 140 155 164 158 160 159 159 160 156 155 161 168 156 147 155 168 255 20 25 338 325 309 289 290 297 309 312 312 308 296 288 284 274 267 267 246 214 198 223
217 224 225 232 161 316 298 158 283 161 169 191 188 175 170 167 165 167 167 165 167 166 159 162 162 187 307 351 32 16 319 284 293 301 310 315 312 306 304 302 298 293 277 272 270 268 235 207 202
197 48 29 45 71 313 249 156 235 221 200 188 190 183 173 168 167 166 164 157 162 168 163 162 159 242 301 344 356 198 303 306 319 319 320 319 313 309 312 307 294 284 275 270 262 251 242 225 213
92 79 22 1 12 263 263 138 233 243 192 176 180 188 184 174 165 163 164 168 174 178 180 173 167 230 277 309 310 284 277 298 307 305 310 316 316 311 308 311 300 287 275 267 254 248 254 230 215
163 136 154 195 233 285 354 152 255 258 180 170 173 181 184 183 178 177 180 180 185 190 186 180 183 217 256 280 294 291 288 292 295 299 302 304 301 298 303 312 308 297 287 276 255 251 254 237 225
137 153 168 143 198 306 334 348 316 283 189 184 185 186 194 193 187 186 186 185 187 190 190 187 186 208 240 265 300 296 298 304 308 312 313 308 307 310 318 325 321 318 313 295 262 253 263 257 237
147 148 97 109 140 308 315 235 224 223 223 220 207 206 210 200 192 187 186 189 192 192 189 183 182 193 210 226 295 333 314 312 312 325 327 322 321 323 329 333 331 334 333 328 299 278 277 265 257
136 118 111 120 150 154 244 265 228 203 204 200 208 207 201 193 190 189 191 191 188 179 174 181 186 177 181 193 204 18 333 327 331 333 327 325 328 333 338 340 340 343 343 338 337 321 318 296 283
173 176 145 146 211 161 177 264 268 202 197 190 197 197 192 187 186 186 185 181 178 176 179 186 188 179 191 192 167 351 331 342 343 335 331 336 339 338 340 346 353 353 353 349 354 334 333 318 303
Height
1537 1537 1537 1538 1540 1546 1546 1538 1531 1529 1528 1529 1528 1528 1532 1535 1539 1545 1541 1538 1539 1539 1539 1539 1538 1538 1538 1537 1537 1537 1537 1536 1536 1536 1536 1536 1536 1536 1535 1535 1535 1535 1535 1535 1535 1535 1535 1535 1535
1537 1537 1538 1538 1544 1553 1547 1535 1531 1528 1528 1529 1530 1532 1533 1536 1538 1539 1539 1539 1539 1539 1539 1539 1538 1538 1537 1537 1536 1536 1535 1535 1535 1535 1535 1534 1534 1534 1534 1534 1534 1534 1534 1534 1534 1534 1534 1534 1534
1537 1537 1538 1539 1544 1549 1543 1533 1529 1527 1528 1528 1532 1534 1536 1538 1539 1539 1539 1539 1539 1539 1539 1538 1538 1537 1536 1536 1535 1535 1534 1534 1533 1533 1533 1533 1533 1533 1533 1533 1532 1532 1532 1532 1532 1532 1533 1533 1533
1536 1538 1538 1542 1543 1538 1533 1530 1527 1528 1529 1530 1532 1536 1538 1540 1539 1539 1539 1540 1540 1539 1539 1538 1537 1537 1536 1535 1534 1533 1533 1532 1532 1531 1531 1531 1531 1531 1531 1531 1531 1531 1531 1531 1531 1531 1531 1531 1532
1536 1536 1540 1545 1541 1534 1530 1529 1527 1528 1530 1533 1533 1537 1540 1540 1540 1539 1540 1540 1540 1539 1538 1538 1537 1536 1535 1534 1533 1532 1531 1530 1530 1529 1529 1529 1528 1528 1528 1528 1529 1529 1529 1529 1529 1529 1530 1530 1530
1535 1536 1546 1549 1541 1534 1531 1529 1529 1530 1532 1534 1534 1538 1540 1541 1540 1540 1540 1540 1540 1539 1538 1537 1536 1535 1534 1533 1532 1531 1530 1529 1528 1527 1527 1526 1526 1526 1526 1526 1526 1526 1527 1527 1527 1528 1528 1528 1529
1535 1538 1544 1544 1542 1536 1531 1530 1529 1531 1532 1534 1534 1537 1540 1540 1540 1540 1540 1540 1539 1539 1538 1537 1535 1534 1533 1532 1531 1530 1529 1528 1526 1526 1525 1524 1524 1523 1523 1523 1523 1524 1524 1524 1525 1525 1526 1526 1527
1533 1537 1542 1544 1541 1537 1531 1530 1530 1530 1532 1534 1534 1536 1538 1539 1540 1540 1540 1539 1539 1538 1537 1536 1535 1533 1532 1531 1530 1529 1527 1526 1525 1524 1523 1522 1522 1521 1521 1521 1521 1521 1521 1522 1522 1523 1524 1524 1525
1533 1541 1545 1541 1539 1535 1530 1530 1531 1531 1532 1533 1533 1534 1536 1537 1539 1539 1539 1539 1538 1537 1536 1535 1534 1532 1531 1530 1529 1527 1526 1524 1523 1522 1521 1520 1519 1519 1518 1518 1518 1518 1518 1519 1520 1520 1521 1522 1523
1533 1542 1538 1532 1530 1530 1528 1528 1530 1532 1533 1534 1534 1534 1535 1536 1537 1538 1538 1538 1537 1536 1535 1534 1533 1531 1530 1529 1527 1526 1524 1523 1521 1520 1519 1518 1517 1516 1516 1515 1515 1515 1515 1516 1517 1517 1518 1519 1520
1531 1535 1531 1529 1527 1527 1527 1528 1529 1530 1533 1532 1531 1533 1534 1535 1536 1536 1536 1536 1536 1535 1534 1533 1531 1530 1529 1527 1525 1524 1522 1521 1519 1518 1516 1515 1514 1514 1513 1512 1512 1512 1512 1513 1513 1514 1515 1516 1517
1531 1529 1528 1527 1526 1527 1527 1527 1528 1527 1528 1528 1529 1530 1532 1533 1534 1534 1534 1534 1534 1533 1533 1531 1530 1529 1527 1525 1524 1522 1520 1518 1517 1515 1514 1513 1512 1511 1510 1510 1509 1509 1509 1510 1510 1511 1512 1513 1514
1529 1528 1526 1525 1525 1526 1525 1525 1526 1526 1525 1527 1528 1529 1529 1530 1531 1532 1532 1532 1532 1532 1531 1530 1529 1527 1525 1524 1522 1520 1518 1516 1514 1513 1511 1510 1509 1508 1507 1506 1506 1506 1506 1507 1507 1508 1509 1510 1511
1525 1525 1525 1524 1524 1524 1524 1524 1525 1524 1524 1525 1526 1527 1527 1528 1529 1530 1531 1530 1530 1530 1529 1528 1527 1525 1524 1522 1520 1518 1516 1514 1512 1510 1509 1508 1506 1505 1504 1504 1503 1503 1503 1503 1504 1505 1506 1507 1508
1523 1525 1525 1523 1523 1523 1524 1526 1521 1520 1522 1523 1524 1524 1525 1526 1528 1528 1529 1529 1529 1528 1527 1527 1526 1524 1522 1520 1518 1516 1513 1511 1510 1508 1506 1505 1504 1502 1501 1501 1500 1500 1499 1500 1500 1501 1502 1503 1505
1524 1528 1532 1524 1522 1522 1528 1532 1518 1518 1520 1521 1522 1523 1524 1525 1526 1527 1527 1527 1527 1527 1526 1525 1524 1522 1520 1518 1516 1514 1511 1509 1507 1505 1504 1502 1501 1499 1498 1497 1497 1496 1496 1496 1497 1498 1499 1500 1501
1531 1536 1534 1526 1520 1521 1525 1527 1515 1516 1517 1519 1520 1521 1522 1523 1525 1526 1526 1526 1526 1525 1525 1524 1522 1521 1519 1517 1514 1512 1510 1507 1505 1503 1502 1500 1498 1496 1495 1494 1494 1493 1493 1493 1494 1494 1495 1496 1498
1537 1535 1532 1528 1519 1520 1523 1521 1513 1514 1516 1517 1518 1519 1520 1521 1523 1524 1525 1525 1525 1524 1523 1522 1521 1519 1517 1515 1513 1511 1508 1506 1504 1502 1500 1498 1496 1494 1492 1491 1491 1490 1490 1490 1491 1491 1492 1493 1494
1526 1529 1530 1523 1514 1518 1520 1517 1512 1511 1514 1515 1517 1518 1519 1520 1522 1523 1524 1524 1524 1523 1522 1521 1519 1518 1516 1514 1511 1509 1507 1504 1502 1500 1498 1496 1494 1492 1490 1489 1488 1487 1487 1487 1488 1488 1489 1490 1492
1522 1527 1527 1519 1512 1515 1518 1517 1511 1509 1510 1512 1514 1516 1517 1519 1521 1522 1523 1523 1522 1522 1521 1519 1518 1517 1515 1513 1510 1508 1506 1503 1501 1499 1496 1494 1492 1489 1488 1486 1485 1484 1484 1484 1485 1485 1486 1487 1489
1521 1525 1523 1521 1514 1513 1517 1523 1515 1511 1511 1513 1514 1515 1516 1517 1519 1520 1521 1521 1521 1520 1520 1518 1517 1515 1514 1512 1509 1507 1505 1502 1500 1497 1495 1492 1490 1488 1486 1484 1483 1482 1481 1481 1482 1482 1483 1484 1486
1522 1513 1513 1514 1522 1528 1522 1538 1523 1515 1514 1514 1514 1515 1515 1516 1517 1519 1519 1520 1520 1519 1518 1517 1516 1514 1513 1510 1508 1506 1503 1501 1498 1495 1493 1490 1488 1486 1484 1482 1481 1480 1479 1479 1479 1479 1480 1482 1483
1513 1506 1509 1511 1519 1527 1525 1535 1531 1518 1518 1516 1514 1514 1515 1515 1516 1517 1518 1518 1518 1518 1517 1516 1515 1513 1512 1510 1507 1505 1502 1500 1497 1494 1491 1489 1486 1484 1482 1480 1478 1477 1476 1476 1476 1476 1477 1479 1480
1504 1509 1514 1522 1528 1539 1526 1534 1531 1523 1516 1514 1514 1514 1514 1515 1516 1516 1517 1517 1517 1517 1516 1515 1514 1512 1511 1509 1506 1504 1501 1498 1496 1493 1490 1487 1484 1482 1480 1478 1476 1474 1473 1473 1473 1474 1475 1476 1477
1508 1524 1542 1542 1550 1543 1524 1529 1528 1512 1509 1509 1511 1512 1513 1514 1514 1515 1515 1516 1516 1516 1515 1514 1513 1512 1510 1508 1506 1503 1500 1498 1495 1491 1488 1485 1483 1480 1478 1475 1473 1472 1471 1470 1470 1471 1472 1473 1474
1510 1522 1543 1551 1552 1543 1528 1530 1522 1509 1507 1508 1509 1510 1511 1512 1513 1513 1514 1514 1514 1514 1514 1513 1512 1511 1509 1507 1505 1502 1500 1497 1494 1491 1488 1485 1482 1479 1476 1474 1471 1469 1468 1468 1468 1468 1469 1470 1472
1509 1518 1520 1535 1537 1543 1537 1526 1516 1510 1510 1509 1509 1510 1510 1510 1511 1512 1512 1513 1513 1513 1513 1512 1511 1510 1508 1506 1504 1502 1499 1497 1494 1491 1487 1484 1481 1478 1475 1472 1469 1467 1466 1465 1465 1466 1467 1468 1469
1502 1509 1524 1534 1544 1550 1539 1532 1530 1515 1512 1509 1509 1508 1508 1509 1510 1510 1511 1511 1512 1512 1512 1511 1510 1509 1507 1505 1503 1501 1499 1496 1493 1490 1487 1484 1481 1478 1474 1471 1468 1466 1465 1464 1463 1464 1465 1466 1467
1505 1508 1520 1534 1539 1548 1548 1537 1509 1507 1505 1506 1505 1505 1506 1507 1507 1508 1509 1510 1510 1511 1510 1510 1509 1508 1506 1505 1503 1501 1498 1496 1493 1490 1487 1484 1481 1477 1474 1471 1468 1466 1464 1463 1462 1462 1463 1464 1465
1500 1505 1516 1531 1534 1539 1545 1534 1500 1500 1500 1501 1502 1503 1504 1505 1506 1507 1508 1509 1509 1509 1509 1509 1508 1507 1505 1504 1502 1500 1498 1496 1493 1490 1487 1484 1481 1477 1474 1471 1468 1466 1464 1463 1462 1461 1462 1462 1463